Time,TemperatureF,DewpointF,PressureIn,WindDirection,WindDirectionDegrees,WindSpeedMPH,WindSpeedGustMPH,Humidity,HourlyPrecipIn,Conditions,Clouds,dailyrainin,SoftwareType,DateUTC
2013-01-14 00:05:00,9.9,5.0,30.26,South,174,0.0,0.0,81,0.00,,,0.00,weatherlink.com 1.10,2013-01-14 06:05:00,
2013-01-14 00:20:00,10.9,6.0,30.26,WNW,283,2.0,2.0,81,0.00,,,0.00,weatherlink.com 1.10,2013-01-14 06:20:00,
2013-01-14 00:38:00,11.1,6.0,30.26,WNW,283,0.0,2.0,79,0.00,,,0.00,weatherlink.com 1.10,2013-01-14 06:38:00,
2013-01-14 00:50:00,9.9,5.0,30.27,WSW,243,0.0,1.0,80,0.00,,,0.00,weatherlink.com 1.10,2013-01-14 06:50:00,
2013-01-14 01:05:00,9.3,5.0,30.27,WSW,243,0.0,1.0,81,0.00,,,0.00,weatherlink.com 1.10,2013-01-14 07:05:00,
2013-01-14 01:21:00,8.6,4.0,30.27,WSW,243,0.0,0.0,82,0.00,,,0.00,weatherlink.com 1.10,2013-01-14 07:21:00,
2013-01-14 01:36:00,8.7,5.0,30.27,WSW,243,0.0,1.0,83,0.00,,,0.00,weatherlink.com 1.10,2013-01-14 07:36:00,
2013-01-14 01:51:00,8.5,4.0,30.28,WSW,243,0.0,0.0,83,0.00,,,0.00,weatherlink.com 1.10,2013-01-14 07:51:00,
2013-01-14 02:08:00,7.9,4.0,30.29,WSW,243,0.0,0.0,82,0.00,,,0.00,weatherlink.com 1.10,2013-01-14 08:08:00,
2013-01-14 02:21:00,7.6,4.0,30.29,WSW,243,0.0,0.0,83,0.00,,,0.00,weatherlink.com 1.10,2013-01-14 08:21:00,
2013-01-14 02:36:00,7.1,3.0,30.30,WSW,243,0.0,0.0,84,0.00,,,0.00,weatherlink.com 1.10,2013-01-14 08:36:00,
2013-01-14 02:51:00,7.0,3.0,30.30,WSW,243,0.0,0.0,83,0.00,,,0.00,weatherlink.com 1.10,2013-01-14 08:51:00,
2013-01-14 03:06:00,8.0,4.0,30.31,WSW,243,0.0,0.0,85,0.00,,,0.00,weatherlink.com 1.10,2013-01-14 09:06:00,
2013-01-14 03:21:00,8.0,4.0,30.31,WSW,243,0.0,0.0,83,0.00,,,0.00,weatherlink.com 1.10,2013-01-14 09:21:00,
2013-01-14 03:36:00,7.0,3.0,30.31,WSW,243,0.0,0.0,83,0.00,,,0.00,weatherlink.com 1.10,2013-01-14 09:36:00,
2013-01-14 03:51:00,8.0,4.0,30.31,South,191,0.0,1.0,84,0.00,,,0.00,weatherlink.com 1.10,2013-01-14 09:51:00,
2013-01-14 04:06:00,8.4,4.0,30.31,South,177,0.0,1.0,83,0.00,,,0.00,weatherlink.com 1.10,2013-01-14 10:06:00,
2013-01-14 04:21:00,7.9,4.0,30.30,South,177,0.0,0.0,83,0.00,,,0.00,weatherlink.com 1.10,2013-01-14 10:21:00,
2013-01-14 04:36:00,7.9,4.0,30.30,South,177,0.0,1.0,83,0.00,,,0.00,weatherlink.com 1.10,2013-01-14 10:36:00,
2013-01-14 04:51:00,7.8,4.0,30.30,South,177,0.0,1.0,84,0.00,,,0.00,weatherlink.com 1.10,2013-01-14 10:51:00,
2013-01-14 05:06:00,7.6,4.0,30.30,South,184,0.0,1.0,84,0.00,,,0.00,weatherlink.com 1.10,2013-01-14 11:06:00,
2013-01-14 05:21:00,7.5,4.0,30.30,SSE,158,0.0,1.0,84,0.00,,,0.00,weatherlink.com 1.10,2013-01-14 11:21:00,
2013-01-14 05:36:00,7.3,3.0,30.31,SSE,158,0.0,0.0,83,0.00,,,0.00,weatherlink.com 1.10,2013-01-14 11:36:00,
2013-01-14 05:51:00,6.8,3.0,30.31,SSE,158,0.0,0.0,83,0.00,,,0.00,weatherlink.com 1.10,2013-01-14 11:51:00,
2013-01-14 06:06:00,6.1,2.0,30.32,SSE,158,0.0,0.0,84,0.00,,,0.00,weatherlink.com 1.10,2013-01-14 12:06:00,
2013-01-14 06:21:00,6.7,3.0,30.32,SSE,158,0.0,1.0,84,0.00,,,0.00,weatherlink.com 1.10,2013-01-14 12:21:00,
2013-01-14 06:36:00,6.1,3.0,30.33,SSE,158,0.0,0.0,85,0.00,,,0.00,weatherlink.com 1.10,2013-01-14 12:36:00,
2013-01-14 06:51:00,6.6,3.0,30.33,SSE,158,0.0,1.0,85,0.00,,,0.00,weatherlink.com 1.10,2013-01-14 12:51:00,
2013-01-14 07:08:00,7.0,3.0,30.34,SSE,158,0.0,0.0,85,0.00,,,0.00,weatherlink.com 1.10,2013-01-14 13:08:00,
2013-01-14 07:21:00,6.4,3.0,30.35,SSE,158,1.0,1.0,85,0.00,,,0.00,weatherlink.com 1.10,2013-01-14 13:21:00,
2013-01-14 07:36:00,7.0,4.0,30.35,SSE,158,0.0,1.0,86,0.00,,,0.00,weatherlink.com 1.10,2013-01-14 13:36:00,
2013-01-14 07:51:00,7.4,4.0,30.36,WNW,286,2.0,2.0,85,0.00,,,0.00,weatherlink.com 1.10,2013-01-14 13:51:00,
2013-01-14 08:06:00,8.7,5.0,30.36,WNW,288,3.0,3.0,84,0.00,,,0.00,weatherlink.com 1.10,2013-01-14 14:06:00,
2013-01-14 08:21:00,9.6,5.0,30.36,WNW,290,1.0,3.0,83,0.00,,,0.00,weatherlink.com 1.10,2013-01-14 14:21:00,
2013-01-14 08:36:00,10.8,6.0,30.37,WNW,291,0.0,1.0,82,0.00,,,0.00,weatherlink.com 1.10,2013-01-14 14:36:00,
2013-01-14 08:51:00,11.9,7.0,30.38,WNW,288,2.0,2.0,81,0.00,,,0.00,weatherlink.com 1.10,2013-01-14 14:51:00,
2013-01-14 09:06:00,13.9,9.0,30.38,NW,307,1.0,1.0,81,0.00,,,0.00,weatherlink.com 1.10,2013-01-14 15:06:00,
2013-01-14 09:21:00,14.9,10.0,30.39,West,281,1.0,3.0,79,0.00,,,0.00,weatherlink.com 1.10,2013-01-14 15:21:00,
2013-01-14 09:37:00,16.0,10.0,30.39,West,269,0.0,3.0,78,0.00,,,0.00,weatherlink.com 1.10,2013-01-14 15:37:00,
2013-01-14 09:52:00,16.4,11.0,30.39,NW,311,0.0,5.0,78,0.00,,,0.00,weatherlink.com 1.10,2013-01-14 15:52:00,
2013-01-14 10:07:00,19.1,13.0,30.39,SSE,160,1.0,3.0,77,0.00,,,0.00,weatherlink.com 1.10,2013-01-14 16:07:00,
2013-01-14 10:22:00,20.1,13.0,30.38,SSW,197,0.0,3.0,74,0.00,,,0.00,weatherlink.com 1.10,2013-01-14 16:22:00,
2013-01-14 10:37:00,21.4,14.0,30.38,West,262,0.0,2.0,72,0.00,,,0.00,weatherlink.com 1.10,2013-01-14 16:37:00,
2013-01-14 10:52:00,23.3,16.0,30.38,NW,311,1.0,2.0,73,0.00,,,0.00,weatherlink.com 1.10,2013-01-14 16:52:00,
2013-01-14 11:07:00,24.2,15.0,30.37,WSW,239,0.0,4.0,67,0.00,,,0.00,weatherlink.com 1.10,2013-01-14 17:07:00,
2013-01-14 11:22:00,25.1,15.0,30.36,WSW,253,0.0,4.0,65,0.00,,,0.00,weatherlink.com 1.10,2013-01-14 17:22:00,
2013-01-14 11:37:00,26.4,14.0,30.36,East,98,0.0,8.0,61,0.00,,,0.00,weatherlink.com 1.10,2013-01-14 17:37:00,
2013-01-14 11:52:00,26.8,14.0,30.34,SW,235,6.0,7.0,59,0.00,,,0.00,weatherlink.com 1.10,2013-01-14 17:52:00,
2013-01-14 12:07:00,26.3,14.0,30.32,WNW,290,2.0,9.0,59,0.00,,,0.00,weatherlink.com 1.10,2013-01-14 18:07:00,
2013-01-14 12:22:00,26.3,14.0,30.32,WNW,296,4.0,8.0,59,0.00,,,0.00,weatherlink.com 1.10,2013-01-14 18:22:00,
2013-01-14 12:37:00,26.8,13.0,30.31,West,264,5.0,10.0,56,0.00,,,0.00,weatherlink.com 1.10,2013-01-14 18:37:00,
2013-01-14 12:52:00,27.5,13.0,30.30,NW,318,2.0,6.0,55,0.00,,,0.00,weatherlink.com 1.10,2013-01-14 18:52:00,
2013-01-14 13:07:00,27.4,13.0,30.29,WNW,290,2.0,11.0,55,0.00,,,0.00,weatherlink.com 1.10,2013-01-14 19:07:00,
2013-01-14 13:22:00,28.0,13.0,30.28,SSW,210,1.0,7.0,54,0.00,,,0.00,weatherlink.com 1.10,2013-01-14 19:22:00,
2013-01-14 13:37:00,28.7,13.0,30.28,WNW,295,6.0,6.0,53,0.00,,,0.00,weatherlink.com 1.10,2013-01-14 19:37:00,
2013-01-14 13:52:00,28.1,12.0,30.28,SE,143,2.0,8.0,51,0.00,,,0.00,weatherlink.com 1.10,2013-01-14 19:52:00,
2013-01-14 14:07:00,28.3,11.0,30.27,WNW,297,3.0,12.0,49,0.00,,,0.00,weatherlink.com 1.10,2013-01-14 20:07:00,
2013-01-14 14:22:00,28.6,12.0,30.27,West,278,7.0,9.0,51,0.00,,,0.00,weatherlink.com 1.10,2013-01-14 20:22:00,
2013-01-14 14:37:00,28.8,13.0,30.27,SE,143,2.0,5.0,51,0.00,,,0.00,weatherlink.com 1.10,2013-01-14 20:37:00,
2013-01-14 14:52:00,28.5,12.0,30.28,SW,221,2.0,7.0,51,0.00,,,0.00,weatherlink.com 1.10,2013-01-14 20:52:00,
2013-01-14 15:07:00,29.0,12.0,30.28,WSW,255,3.0,9.0,50,0.00,,,0.00,weatherlink.com 1.10,2013-01-14 21:07:00,
2013-01-14 15:22:00,28.9,12.0,30.27,North,9,0.0,9.0,50,0.00,,,0.00,weatherlink.com 1.10,2013-01-14 21:22:00,
2013-01-14 15:37:00,28.4,13.0,30.27,WNW,291,2.0,7.0,52,0.00,,,0.00,weatherlink.com 1.10,2013-01-14 21:37:00,
2013-01-14 15:52:00,28.3,13.0,30.27,WNW,293,5.0,7.0,52,0.00,,,0.00,weatherlink.com 1.10,2013-01-14 21:52:00,
2013-01-14 16:07:00,28.0,13.0,30.27,WNW,299,0.0,4.0,53,0.00,,,0.00,weatherlink.com 1.10,2013-01-14 22:07:00,
2013-01-14 16:22:00,27.7,12.0,30.27,WSW,250,0.0,6.0,52,0.00,,,0.00,weatherlink.com 1.10,2013-01-14 22:22:00,
2013-01-14 16:37:00,27.4,12.0,30.27,WNW,295,0.0,3.0,52,0.00,,,0.00,weatherlink.com 1.10,2013-01-14 22:37:00,
2013-01-14 16:52:00,26.9,12.0,30.27,SSE,167,0.0,1.0,54,0.00,,,0.00,weatherlink.com 1.10,2013-01-14 22:52:00,
2013-01-14 17:07:00,26.0,12.0,30.27,SSE,158,0.0,1.0,55,0.00,,,0.00,weatherlink.com 1.10,2013-01-14 23:07:00,
2013-01-14 17:22:00,25.3,12.0,30.27,East,96,0.0,1.0,57,0.00,,,0.00,weatherlink.com 1.10,2013-01-14 23:22:00,
2013-01-14 17:37:00,24.5,12.0,30.27,SSW,200,0.0,1.0,58,0.00,,,0.00,weatherlink.com 1.10,2013-01-14 23:37:00,
2013-01-14 17:52:00,23.7,12.0,30.27,SSW,198,0.0,1.0,61,0.00,,,0.00,weatherlink.com 1.10,2013-01-14 23:52:00,
2013-01-14 18:07:00,22.0,11.0,30.28,SSW,198,0.0,0.0,64,0.00,,,0.00,weatherlink.com 1.10,2013-01-15 00:07:00,
2013-01-14 18:22:00,21.2,12.0,30.28,SSW,198,0.0,0.0,67,0.00,,,0.00,weatherlink.com 1.10,2013-01-15 00:22:00,
2013-01-14 18:37:00,20.9,12.0,30.29,SSW,198,0.0,0.0,69,0.00,,,0.00,weatherlink.com 1.10,2013-01-15 00:37:00,
2013-01-14 18:52:00,20.9,12.0,30.29,SSW,194,0.0,0.0,69,0.00,,,0.00,weatherlink.com 1.10,2013-01-15 00:52:00,
2013-01-14 19:07:00,20.1,12.0,30.29,SSE,147,0.0,1.0,72,0.00,,,0.00,weatherlink.com 1.10,2013-01-15 01:07:00,
2013-01-14 19:37:00,19.9,12.0,30.29,SSE,147,0.0,0.0,71,0.00,,,0.00,weatherlink.com 1.10,2013-01-15 01:37:00,
2013-01-14 19:52:00,19.5,12.0,30.28,SSE,158,1.0,2.0,72,0.00,,,0.00,weatherlink.com 1.10,2013-01-15 01:52:00,
2013-01-14 20:07:00,18.5,12.0,30.28,SE,135,0.0,1.0,74,0.00,,,0.00,weatherlink.com 1.10,2013-01-15 02:07:00,
2013-01-14 20:23:00,17.9,12.0,30.29,SE,133,0.0,1.0,76,0.00,,,0.00,weatherlink.com 1.10,2013-01-15 02:23:00,
2013-01-14 20:38:00,17.5,11.0,30.28,ESE,119,1.0,1.0,77,0.00,,,0.00,weatherlink.com 1.10,2013-01-15 02:38:00,
2013-01-14 20:53:00,17.8,11.0,30.28,ESE,121,0.0,1.0,76,0.00,,,0.00,weatherlink.com 1.10,2013-01-15 02:53:00,
2013-01-14 21:08:00,17.8,11.0,30.28,ESE,122,0.0,1.0,76,0.00,,,0.00,weatherlink.com 1.10,2013-01-15 03:08:00,
2013-01-14 21:23:00,17.5,11.0,30.27,ESE,122,0.0,0.0,76,0.00,,,0.00,weatherlink.com 1.10,2013-01-15 03:23:00,
2013-01-14 21:38:00,17.1,11.0,30.27,ESE,121,0.0,0.0,77,0.00,,,0.00,weatherlink.com 1.10,2013-01-15 03:38:00,
2013-01-14 21:53:00,17.1,11.0,30.27,SW,215,0.0,1.0,77,0.00,,,0.00,weatherlink.com 1.10,2013-01-15 03:53:00,
2013-01-14 22:08:00,17.4,11.0,30.27,South,169,0.0,1.0,77,0.00,,,0.00,weatherlink.com 1.10,2013-01-15 04:08:00,
2013-01-14 22:23:00,17.8,11.0,30.27,South,180,3.0,5.0,76,0.00,,,0.00,weatherlink.com 1.10,2013-01-15 04:23:00,
2013-01-14 22:38:00,18.7,12.0,30.27,SSE,155,3.0,7.0,74,0.00,,,0.00,weatherlink.com 1.10,2013-01-15 04:38:00,
2013-01-14 22:53:00,18.8,12.0,30.27,SSW,193,3.0,5.0,73,0.00,,,0.00,weatherlink.com 1.10,2013-01-15 04:53:00,
2013-01-14 23:08:00,18.3,11.0,30.27,SSE,155,1.0,2.0,74,0.00,,,0.00,weatherlink.com 1.10,2013-01-15 05:08:00,
2013-01-14 23:23:00,17.9,11.0,30.27,SSW,203,0.0,3.0,74,0.00,,,0.00,weatherlink.com 1.10,2013-01-15 05:23:00,
2013-01-14 23:38:00,17.1,11.0,30.27,SSE,162,0.0,3.0,76,0.00,,,0.00,weatherlink.com 1.10,2013-01-15 05:38:00,
2013-01-14 23:53:00,17.7,11.0,30.27,South,191,4.0,5.0,76,0.00,,,0.00,weatherlink.com 1.10,2013-01-15 05:53:00,